| time (UTC) | temp C | wind direction | speed KPH | gust KPH | rain 1hr cm | rain 24hr cm | rain mn cm | humidity % | barometer mb |
| 20260502194537 | 18 | 299 | 3.2 | 17.7 | 0.00 | 0.00 | 0.00 | 31 | 1011.6 |
| 20260502194024 | 18 | 134 | 6.4 | 17.7 | 0.00 | 0.00 | 0.00 | 32 | 1011.8 |
| 20260502193525 | 18 | 283 | 3.2 | 17.7 | 0.00 | 0.00 | 0.00 | 31 | 1011.9 |
| 20260502193045 | 18 | 328 | 6.4 | 17.7 | 0.00 | 0.00 | 0.00 | 30 | 1012.0 |
| 20260502192527 | 18 | 207 | 3.2 | 14.5 | 0.00 | 0.00 | 0.00 | 30 | 1012.0 |
| 20260502192026 | 18 | 219 | 8.0 | 16.1 | 0.00 | 0.00 | 0.00 | 30 | 1012.0 |
| 20260502191545 | 18 | 260 | 6.4 | 16.1 | 0.00 | 0.00 | 0.00 | 31 | 1012.0 |
| 20260502191025 | 18 | 219 | 6.4 | 16.1 | 0.00 | 0.00 | 0.00 | 31 | 1012.2 |
| 20260502190525 | 18 | 187 | 8.0 | 16.1 | 0.00 | 0.00 | 0.00 | 31 | 1012.2 |
| 20260502190041 | 18 | 108 | 4.8 | 8.0 | 0.00 | 0.00 | 0.00 | 31 | 1012.3 |
| 20260502185524 | 17 | 167 | 3.2 | 14.5 | 0.00 | 0.00 | 0.00 | 32 | 1012.4 |
| 20260502185027 | 16 | 221 | 3.2 | 17.7 | 0.00 | 0.00 | 0.00 | 32 | 1012.6 |
| 20260502184547 | 16 | 268 | 4.8 | 17.7 | 0.00 | 0.00 | 0.00 | 31 | 1012.7 |
| 20260502184024 | 16 | 231 | 4.8 | 14.5 | 0.00 | 0.00 | 0.00 | 31 | 1012.6 |
| 20260502183528 | 17 | 292 | 3.2 | 14.5 | 0.00 | 0.00 | 0.00 | 32 | 1012.7 |
| 20260502183037 | 16 | 226 | 4.8 | 16.1 | 0.00 | 0.00 | 0.00 | 33 | 1012.8 |
| 20260502182531 | 16 | 184 | 6.4 | 16.1 | 0.00 | 0.00 | 0.00 | 32 | 1013.0 |
| 20260502182028 | 16 | 96 | 4.8 | 17.7 | 0.00 | 0.00 | 0.00 | 33 | 1013.1 |
| 20260502181604 | 16 | 206 | 6.4 | 17.7 | 0.00 | 0.00 | 0.00 | 31 | 1013.2 |
| 20260502181027 | 17 | 197 | 3.2 | 17.7 | 0.00 | 0.00 | 0.00 | 31 | 1013.3 |
| 20260502180527 | 17 | 176 | 4.8 | 12.9 | 0.00 | 0.00 | 0.00 | 32 | 1013.4 |
| 20260502164025 | 15 | 181 | 3.2 | 9.7 | 0.00 | 0.00 | 0.00 | 34 | 1015.3 |
| 20260502163530 | 15 | 146 | 3.2 | 9.7 | 0.00 | 0.00 | 0.00 | 35 | 1015.3 |
| 20260502163042 | 15 | 153 | 4.8 | 9.7 | 0.00 | 0.00 | 0.00 | 34 | 1015.3 |
| 20260502162525 | 15 | 185 | 3.2 | 14.5 | 0.00 | 0.00 | 0.00 | 36 | 1015.4 |
| 20260502162025 | 14 | 224 | 3.2 | 14.5 | 0.00 | 0.00 | 0.00 | 34 | 1015.4 |
| 20260502161544 | 14 | 257 | 3.2 | 11.3 | 0.00 | 0.00 | 0.00 | 36 | 1015.5 |
| 20260502161024 | 14 | 162 | 4.8 | 11.3 | 0.00 | 0.00 | 0.00 | 35 | 1015.5 |
| 20260502160527 | 14 | 202 | 4.8 | 11.3 | 0.00 | 0.00 | 0.00 | 35 | 1015.7 |
| 20260502152032 | 12 | 214 | 8.0 | 14.5 | 0.00 | 0.00 | 0.00 | 38 | 1016.2 |
| 20260502151600 | 12 | 137 | 6.4 | 12.9 | 0.00 | 0.00 | 0.00 | 38 | 1016.4 |
| 20260502151031 | 12 | 321 | 1.6 | 9.7 | 0.00 | 0.00 | 0.00 | 38 | 1016.4 |
| 20260502150529 | 12 | 236 | 3.2 | 9.7 | 0.00 | 0.00 | 0.00 | 38 | 1016.4 |
| 20260502130528 | 5 | 200 | 0.0 | 3.2 | 0.00 | 0.00 | 0.00 | 60 | 1018.0 |
| 20260502123528 | 2 | 213 | 0.0 | 3.2 | 0.00 | 0.00 | 0.00 | 68 | 1017.9 |
| 20260502123045 | 1 | 190 | 0.0 | 1.6 | 0.00 | 0.00 | 0.00 | 71 | 1017.9 |
| 20260502122529 | 1 | 199 | 0.0 | 1.6 | 0.00 | 0.00 | 0.00 | 72 | 1018.0 |
| 20260502122028 | 1 | 199 | 0.0 | 1.6 | 0.00 | 0.00 | 0.00 | 72 | 1018.1 |
| 20260502121544 | 1 | 0 | 0.0 | 1.6 | 0.00 | 0.00 | 0.00 | 74 | 1018.1 |
| 20260502121031 | 0 | 175 | 0.0 | 1.6 | 0.00 | 0.00 | 0.00 | 75 | 1018.1 |
| 20260502120530 | 0 | 169 | 0.0 | 1.6 | 0.00 | 0.00 | 0.00 | 77 | 1018.1 |
| 20260502115528 | 0 | 165 | 0.0 | 1.6 | 0.00 | 0.00 | 0.00 | 79 | 1018.1 |
| 20260502115032 | 0 | 0 | 0.0 | 1.6 | 0.00 | 0.00 | 0.00 | 80 | 1018.3 |
| 20260502114549 | -1 | 30 | 0.0 | 1.6 | 0.00 | 0.00 | 0.00 | 81 | 1018.2 |
| 20260502114029 | -1 | 0 | 0.0 | 0.0 | 0.00 | 0.00 | 0.00 | 81 | 1018.1 |
| 20260502113529 | -1 | 0 | 0.0 | 0.0 | 0.00 | 0.00 | 0.00 | 80 | 1018.3 |
| 20260502113049 | -1 | 0 | 0.0 | 0.0 | 0.00 | 0.00 | 0.00 | 80 | 1018.3 |
| 20260502112528 | -1 | 0 | 0.0 | 0.0 | 0.00 | 0.00 | 0.00 | 80 | 1018.3 |
| 20260502112028 | -1 | 0 | 0.0 | 0.0 | 0.00 | 0.00 | 0.00 | 80 | 1018.2 |
| 20260502111548 | -1 | 0 | 0.0 | 0.0 | 0.00 | 0.00 | 0.00 | 80 | 1018.2 |
| 20260502111028 | -1 | 0 | 0.0 | 0.0 | 0.00 | 0.00 | 0.00 | 80 | 1018.1 |
| 20260502110528 | -1 | 0 | 0.0 | 0.0 | 0.00 | 0.00 | 0.00 | 79 | 1018.2 |
| 20260502110046 | -1 | 0 | 0.0 | 0.0 | 0.00 | 0.00 | 0.00 | 78 | 1018.3 |
| 20260502105531 | -1 | 0 | 0.0 | 0.0 | 0.00 | 0.00 | 0.00 | 78 | 1018.2 |
| 20260502105033 | -1 | 0 | 0.0 | 0.0 | 0.00 | 0.00 | 0.00 | 79 | 1018.2 |
| 20260502104544 | -1 | 0 | 0.0 | 0.0 | 0.00 | 0.00 | 0.00 | 79 | 1018.3 |
| 20260502104028 | -1 | 0 | 0.0 | 0.0 | 0.00 | 0.00 | 0.00 | 78 | 1018.3 |
| 20260502103534 | -1 | 0 | 0.0 | 0.0 | 0.00 | 0.00 | 0.00 | 79 | 1018.3 |
| 20260502103043 | -1 | 0 | 0.0 | 0.0 | 0.00 | 0.00 | 0.00 | 80 | 1018.4 |
| 20260502102529 | -1 | 0 | 0.0 | 0.0 | 0.00 | 0.00 | 0.00 | 80 | 1018.4 |
| 20260502102029 | -1 | 0 | 0.0 | 1.6 | 0.00 | 0.00 | 0.00 | 79 | 1018.4 |
| 20260502101545 | -1 | 0 | 0.0 | 1.6 | 0.00 | 0.00 | 0.00 | 80 | 1018.5 |
| 20260502101028 | -1 | 0 | 0.0 | 1.6 | 0.00 | 0.00 | 0.00 | 81 | 1018.5 |
| 20260502100528 | -1 | 29 | 0.0 | 0.0 | 0.00 | 0.00 | 0.00 | 80 | 1018.4 |
| 20260502091028 | -1 | 0 | 0.0 | 0.0 | 0.00 | 0.00 | 0.00 | 76 | 1018.4 |
| 20260502090530 | -1 | 0 | 0.0 | 0.0 | 0.00 | 0.00 | 0.00 | 77 | 1018.4 |
| 20260502071028 | 0 | 0 | 0.0 | 0.0 | 0.00 | 0.00 | 0.00 | 73 | 1018.9 |
| 20260502070529 | 0 | 0 | 0.0 | 0.0 | 0.00 | 0.00 | 0.00 | 73 | 1018.9 |
| 20260502070040 | 0 | 0 | 0.0 | 0.0 | 0.00 | 0.00 | 0.00 | 73 | 1018.9 |
| 20260502065529 | 0 | 0 | 0.0 | 0.0 | 0.00 | 0.00 | 0.00 | 73 | 1018.9 |
| 20260502065031 | 0 | 0 | 0.0 | 0.0 | 0.00 | 0.00 | 0.00 | 73 | 1019.0 |
| 20260502064555 | 0 | 0 | 0.0 | 0.0 | 0.00 | 0.00 | 0.00 | 73 | 1019.0 |
| 20260502064030 | 0 | 0 | 0.0 | 0.0 | 0.00 | 0.00 | 0.00 | 72 | 1019.0 |
| 20260502063530 | 0 | 0 | 0.0 | 0.0 | 0.00 | 0.00 | 0.00 | 72 | 1019.1 |
| 20260502063045 | 0 | 0 | 0.0 | 0.0 | 0.00 | 0.00 | 0.00 | 72 | 1019.1 |
| 20260502062528 | 0 | 0 | 0.0 | 0.0 | 0.00 | 0.00 | 0.00 | 71 | 1019.1 |
| 20260502062027 | 0 | 0 | 0.0 | 0.0 | 0.00 | 0.00 | 0.00 | 71 | 1019.1 |
| 20260502061541 | 0 | 0 | 0.0 | 0.0 | 0.00 | 0.00 | 0.00 | 72 | 1019.2 |
| 20260502061028 | 0 | 0 | 0.0 | 0.0 | 0.00 | 0.00 | 0.00 | 70 | 1019.2 |
| 20260502060528 | 1 | 0 | 0.0 | 0.0 | 0.00 | 0.00 | 0.00 | 69 | 1019.1 |
| 20260502060043 | 1 | 0 | 0.0 | 0.0 | 0.00 | 0.00 | 0.00 | 70 | 1019.2 |
| 20260502055529 | 1 | 0 | 0.0 | 0.0 | 0.00 | 0.00 | 0.00 | 68 | 1019.2 |
| 20260502055029 | 1 | 0 | 0.0 | 0.0 | 0.00 | 0.00 | 0.00 | 68 | 1019.2 |
| 20260502054548 | 1 | 0 | 0.0 | 0.0 | 0.00 | 0.00 | 0.00 | 67 | 1019.1 |
| 20260502054028 | 1 | 0 | 0.0 | 0.0 | 0.00 | 0.00 | 0.00 | 67 | 1019.1 |
| 20260502053529 | 1 | 0 | 0.0 | 0.0 | 0.00 | 0.00 | 0.00 | 68 | 1019.2 |
| 20260502053048 | 1 | 0 | 0.0 | 0.0 | 0.00 | 0.00 | 0.00 | 68 | 1019.1 |
| 20260502052528 | 1 | 0 | 0.0 | 0.0 | 0.00 | 0.00 | 0.00 | 68 | 1018.9 |
| 20260502052029 | 1 | 0 | 0.0 | 0.0 | 0.00 | 0.00 | 0.00 | 68 | 1019.1 |
| 20260502051547 | 2 | 0 | 0.0 | 0.0 | 0.00 | 0.00 | 0.00 | 67 | 1019.1 |
| 20260502051028 | 2 | 0 | 0.0 | 0.0 | 0.00 | 0.00 | 0.00 | 64 | 1019.1 |
| 20260502050526 | 2 | 0 | 0.0 | 0.0 | 0.00 | 0.00 | 0.00 | 64 | 1019.1 |
| 20260502050045 | 2 | 0 | 0.0 | 0.0 | 0.00 | 0.00 | 0.00 | 63 | 1019.1 |
| 20260502045528 | 2 | 0 | 0.0 | 0.0 | 0.00 | 0.00 | 0.00 | 62 | 1019.1 |
| 20260502045028 | 2 | 0 | 0.0 | 0.0 | 0.00 | 0.00 | 0.00 | 62 | 1019.1 |
| 20260502044542 | 2 | 0 | 0.0 | 0.0 | 0.00 | 0.00 | 0.00 | 61 | 1019.2 |
| 20260502044028 | 2 | 0 | 0.0 | 0.0 | 0.00 | 0.00 | 0.00 | 60 | 1019.2 |
| 20260502043529 | 2 | 0 | 0.0 | 0.0 | 0.00 | 0.00 | 0.00 | 60 | 1019.2 |
| 20260502043053 | 3 | 0 | 0.0 | 0.0 | 0.00 | 0.00 | 0.00 | 60 | 1019.2 |
| 20260502042529 | 3 | 0 | 0.0 | 0.0 | 0.00 | 0.00 | 0.00 | 59 | 1019.2 |
| 20260502042029 | 3 | 0 | 0.0 | 0.0 | 0.00 | 0.00 | 0.00 | 59 | 1019.2 |
| 20260502041549 | 3 | 0 | 0.0 | 0.0 | 0.00 | 0.00 | 0.00 | 58 | 1019.2 |
| 20260502041028 | 3 | 0 | 0.0 | 0.0 | 0.00 | 0.00 | 0.00 | 58 | 1019.2 |
| 20260502040528 | 3 | 0 | 0.0 | 0.0 | 0.00 | 0.00 | 0.00 | 57 | 1019.3 |
| 20260502040058 | 3 | 0 | 0.0 | 0.0 | 0.00 | 0.00 | 0.00 | 56 | 1019.3 |
| 20260502035528 | 3 | 0 | 0.0 | 0.0 | 0.00 | 0.00 | 0.00 | 55 | 1019.3 |
| 20260502035028 | 3 | 0 | 0.0 | 0.0 | 0.00 | 0.00 | 0.00 | 55 | 1019.3 |
| 20260502034547 | 3 | 0 | 0.0 | 0.0 | 0.00 | 0.00 | 0.00 | 54 | 1019.3 |
| 20260502034030 | 3 | 0 | 0.0 | 0.0 | 0.00 | 0.00 | 0.00 | 54 | 1019.3 |
| 20260502033531 | 3 | 0 | 0.0 | 0.0 | 0.00 | 0.00 | 0.00 | 54 | 1019.3 |
| 20260502033048 | 4 | 0 | 0.0 | 0.0 | 0.00 | 0.00 | 0.00 | 53 | 1019.3 |
| 20260502032532 | 4 | 0 | 0.0 | 0.0 | 0.00 | 0.00 | 0.00 | 50 | 1019.3 |
| 20260502032029 | 4 | 0 | 0.0 | 0.0 | 0.00 | 0.00 | 0.00 | 50 | 1019.3 |
| 20260502031548 | 4 | 0 | 0.0 | 0.0 | 0.00 | 0.00 | 0.00 | 51 | 1019.2 |
| 20260502031029 | 4 | 0 | 0.0 | 0.0 | 0.00 | 0.00 | 0.00 | 50 | 1019.2 |
| 20260502030530 | 4 | 0 | 0.0 | 0.0 | 0.00 | 0.00 | 0.00 | 49 | 1019.1 |
| 20260502030043 | 5 | 0 | 0.0 | 0.0 | 0.00 | 0.00 | 0.00 | 50 | 1019.2 |
| 20260502025528 | 5 | 0 | 0.0 | 0.0 | 0.00 | 0.00 | 0.00 | 48 | 1019.1 |
| 20260502025028 | 5 | 0 | 0.0 | 0.0 | 0.00 | 0.00 | 0.00 | 47 | 1019.1 |
| 20260502024545 | 5 | 0 | 0.0 | 0.0 | 0.00 | 0.00 | 0.00 | 44 | 1019.1 |
| 20260502024025 | 5 | 0 | 0.0 | 0.0 | 0.00 | 0.00 | 0.00 | 43 | 1019.0 |
| 20260502023531 | 5 | 0 | 0.0 | 0.0 | 0.00 | 0.00 | 0.00 | 41 | 1019.1 |
| 20260502023050 | 6 | 0 | 0.0 | 0.0 | 0.00 | 0.00 | 0.00 | 40 | 1019.1 |
| 20260502022528 | 6 | 0 | 0.0 | 0.0 | 0.00 | 0.00 | 0.00 | 40 | 1019.0 |
| 20260502022028 | 6 | 0 | 0.0 | 0.0 | 0.00 | 0.00 | 0.00 | 40 | 1019.0 |
| 20260502021544 | 7 | 0 | 0.0 | 0.0 | 0.00 | 0.00 | 0.00 | 39 | 1018.9 |
| 20260502021030 | 7 | 0 | 0.0 | 0.0 | 0.00 | 0.00 | 0.00 | 39 | 1018.9 |
| 20260502020528 | 7 | 0 | 0.0 | 0.0 | 0.00 | 0.00 | 0.00 | 38 | 1018.9 |
| 20260502020053 | 7 | 0 | 0.0 | 0.0 | 0.00 | 0.00 | 0.00 | 38 | 1018.9 |
| 20260502015526 | 8 | 0 | 0.0 | 1.6 | 0.00 | 0.00 | 0.00 | 36 | 1018.9 |
| 20260502015027 | 8 | 0 | 0.0 | 1.6 | 0.00 | 0.00 | 0.00 | 36 | 1018.7 |
| 20260502014550 | 8 | 0 | 0.0 | 1.6 | 0.00 | 0.00 | 0.00 | 35 | 1018.7 |
| 20260502014028 | 8 | 0 | 0.0 | 1.6 | 0.00 | 0.00 | 0.00 | 34 | 1018.7 |
| 20260502013528 | 8 | 0 | 0.0 | 1.6 | 0.00 | 0.00 | 0.00 | 34 | 1018.6 |
| 20260502013047 | 8 | 0 | 0.0 | 0.0 | 0.00 | 0.00 | 0.00 | 33 | 1018.7 |
| 20260502012525 | 9 | 0 | 0.0 | 0.0 | 0.00 | 0.00 | 0.00 | 33 | 1018.7 |
| 20260502012031 | 9 | 0 | 0.0 | 3.2 | 0.00 | 0.00 | 0.00 | 32 | 1018.5 |
| 20260502011552 | 10 | 0 | 0.0 | 4.8 | 0.00 | 0.00 | 0.00 | 31 | 1018.5 |
| 20260502011028 | 10 | 351 | 1.6 | 4.8 | 0.00 | 0.00 | 0.00 | 31 | 1018.5 |
| 20260502010528 | 10 | 32 | 0.0 | 4.8 | 0.00 | 0.00 | 0.00 | 31 | 1018.5 |
| 20260502010044 | 10 | 0 | 0.0 | 4.8 | 0.00 | 0.00 | 0.00 | 31 | 1018.5 |
| 20260502005528 | 10 | 35 | 0.0 | 4.8 | 0.00 | 0.00 | 0.00 | 30 | 1018.5 |
| 20260502005025 | 10 | 63 | 1.6 | 4.8 | 0.00 | 0.00 | 0.00 | 29 | 1018.4 |
| 20260502004547 | 11 | 8 | 1.6 | 4.8 | 0.00 | 0.00 | 0.00 | 30 | 1018.4 |
| 20260502004028 | 11 | 79 | 3.2 | 6.4 | 0.00 | 0.00 | 0.00 | 29 | 1018.4 |
| 20260502003530 | 11 | 34 | 1.6 | 6.4 | 0.00 | 0.00 | 0.00 | 29 | 1018.4 |
| 20260502003039 | 11 | 45 | 3.2 | 6.4 | 0.00 | 0.00 | 0.00 | 29 | 1018.4 |
| 20260502002528 | 11 | 18 | 1.6 | 6.4 | 0.00 | 0.00 | 0.00 | 28 | 1018.3 |
| 20260502002025 | 11 | 23 | 1.6 | 12.9 | 0.00 | 0.00 | 0.00 | 28 | 1018.2 |
| 20260502001624 | 11 | 346 | 3.2 | 12.9 | 0.00 | 0.00 | 0.00 | 28 | 1018.2 |
| 20260502001025 | 11 | 340 | 1.6 | 6.4 | 0.00 | 0.00 | 0.00 | 28 | 1018.3 |
| 20260502000525 | 11 | 68 | 1.6 | 11.3 | 0.00 | 0.00 | 0.00 | 29 | 1018.2 |
| 20260502000048 | 11 | 314 | 1.6 | 11.3 | 0.00 | 0.00 | 0.00 | 28 | 1018.2 |
| 20260501235526 | 12 | 19 | 1.6 | 8.0 | 0.00 | 0.00 | 0.00 | 28 | 1018.1 |
| 20260501235028 | 12 | 49 | 3.2 | 11.3 | 0.00 | 0.00 | 0.00 | 28 | 1018.1 |
| 20260501234545 | 12 | 48 | 3.2 | 11.3 | 0.00 | 0.00 | 0.00 | 28 | 1018.2 |
| 20260501234028 | 12 | 345 | 1.6 | 11.3 | 0.00 | 0.00 | 0.00 | 28 | 1018.2 |
| 20260501233531 | 12 | 50 | 1.6 | 9.7 | 0.00 | 0.00 | 0.00 | 29 | 1018.2 |
| 20260501233044 | 12 | 130 | 3.2 | 9.7 | 0.00 | 0.00 | 0.00 | 27 | 1018.1 |
| 20260501232533 | 12 | 326 | 3.2 | 8.0 | 0.00 | 0.00 | 0.00 | 27 | 1018.2 |
| 20260501232028 | 12 | 345 | 3.2 | 8.0 | 0.00 | 0.00 | 0.00 | 27 | 1018.1 |
| 20260501231543 | 12 | 8 | 3.2 | 6.4 | 0.00 | 0.00 | 0.00 | 28 | 1018.2 |
| 20260501231028 | 12 | 12 | 3.2 | 8.0 | 0.00 | 0.00 | 0.00 | 29 | 1018.2 |
| 20260501230529 | 12 | 49 | 1.6 | 8.0 | 0.00 | 0.00 | 0.00 | 27 | 1018.2 |
| 20260501230041 | 12 | 349 | 3.2 | 6.4 | 0.00 | 0.00 | 0.00 | 27 | 1018.3 |
| 20260501225528 | 12 | 61 | 1.6 | 9.7 | 0.00 | 0.00 | 0.00 | 27 | 1018.4 |
| 20260501225027 | 12 | 342 | 1.6 | 9.7 | 0.00 | 0.00 | 0.00 | 27 | 1018.3 |
| 20260501224553 | 12 | 36 | 3.2 | 9.7 | 0.00 | 0.00 | 0.00 | 27 | 1018.4 |
| 20260501224030 | 12 | 321 | 1.6 | 12.9 | 0.00 | 0.00 | 0.00 | 28 | 1018.3 |
| 20260501223525 | 12 | 15 | 3.2 | 12.9 | 0.00 | 0.00 | 0.00 | 28 | 1018.4 |
| 20260501223047 | 12 | 354 | 3.2 | 9.7 | 0.00 | 0.00 | 0.00 | 28 | 1018.4 |
| 20260501222529 | 12 | 51 | 1.6 | 9.7 | 0.00 | 0.00 | 0.00 | 28 | 1018.3 |
| 20260501222027 | 12 | 6 | 3.2 | 12.9 | 0.00 | 0.00 | 0.00 | 27 | 1018.4 |
| 20260501221547 | 12 | 138 | 1.6 | 12.9 | 0.00 | 0.00 | 0.00 | 27 | 1018.4 |
| 20260501221028 | 12 | 19 | 0.0 | 11.3 | 0.00 | 0.00 | 0.00 | 29 | 1018.4 |
| 20260501220528 | 12 | 32 | 1.6 | 11.3 | 0.00 | 0.00 | 0.00 | 30 | 1018.5 |
| 20260501220048 | 12 | 251 | 4.8 | 11.3 | 0.00 | 0.00 | 0.00 | 28 | 1018.5 |
| 20260501215528 | 12 | 43 | 1.6 | 11.3 | 0.00 | 0.00 | 0.00 | 28 | 1018.5 |
| 20260501215028 | 12 | 39 | 4.8 | 11.3 | 0.00 | 0.00 | 0.00 | 28 | 1018.5 |
| 20260501214542 | 12 | 117 | 4.8 | 11.3 | 0.00 | 0.00 | 0.00 | 27 | 1018.6 |
| 20260501214028 | 12 | 10 | 3.2 | 14.5 | 0.00 | 0.00 | 0.00 | 27 | 1018.6 |
| 20260501213529 | 12 | 15 | 1.6 | 14.5 | 0.00 | 0.00 | 0.00 | 29 | 1018.5 |
| 20260501213045 | 12 | 344 | 1.6 | 4.8 | 0.00 | 0.00 | 0.00 | 28 | 1018.7 |
| 20260501212527 | 12 | 264 | 1.6 | 4.8 | 0.00 | 0.00 | 0.00 | 29 | 1018.7 |
| 20260501212025 | 12 | 274 | 1.6 | 12.9 | 0.00 | 0.00 | 0.00 | 29 | 1018.7 |
| 20260501211550 | 12 | 160 | 4.8 | 12.9 | 0.00 | 0.00 | 0.00 | 30 | 1018.8 |
| 20260501211025 | 12 | 266 | 4.8 | 12.9 | 0.00 | 0.00 | 0.00 | 27 | 1018.8 |
| 20260501210525 | 12 | 41 | 1.6 | 9.7 | 0.00 | 0.00 | 0.00 | 29 | 1018.8 |
| 20260501210057 | 12 | 4 | 4.8 | 16.1 | 0.00 | 0.00 | 0.00 | 28 | 1018.8 |
| 20260501205525 | 12 | 280 | 3.2 | 16.1 | 0.00 | 0.00 | 0.00 | 29 | 1018.9 |
| 20260501205031 | 11 | 327 | 6.4 | 16.1 | 0.00 | 0.00 | 0.00 | 30 | 1018.9 |
| 20260501204545 | 11 | 290 | 1.6 | 14.5 | 0.00 | 0.00 | 0.00 | 29 | 1018.8 |
| 20260501204028 | 11 | 344 | 6.4 | 14.5 | 0.00 | 0.00 | 0.00 | 29 | 1019.2 |
| 20260501203528 | 11 | 223 | 4.8 | 12.9 | 0.00 | 0.00 | 0.00 | 30 | 1019.0 |
| 20260501203042 | 11 | 257 | 1.6 | 12.9 | 0.00 | 0.00 | 0.00 | 30 | 1019.1 |
| 20260501202530 | 11 | 267 | 6.4 | 11.3 | 0.00 | 0.00 | 0.00 | 29 | 1019.2 |
| 20260501202028 | 12 | 38 | 3.2 | 11.3 | 0.00 | 0.00 | 0.00 | 29 | 1019.2 |
| 20260501201549 | 12 | 281 | 3.2 | 8.0 | 0.00 | 0.00 | 0.00 | 29 | 1019.1 |
| 20260501201031 | 12 | 352 | 3.2 | 9.7 | 0.00 | 0.00 | 0.00 | 30 | 1019.2 |
| 20260501200528 | 11 | 1 | 1.6 | 9.7 | 0.00 | 0.00 | 0.00 | 31 | 1019.3 |
| 20260501200040 | 11 | 337 | 3.2 | 9.7 | 0.00 | 0.00 | 0.00 | 29 | 1019.3 |
| 20260501195525 | 11 | 236 | 3.2 | 9.7 | 0.00 | 0.00 | 0.00 | 30 | 1019.3 |
| 20260501195031 | 11 | 340 | 3.2 | 17.7 | 0.00 | 0.00 | 0.00 | 31 | 1019.3 |